Ellsworth AFB, SD

8:14 PM MST on December 03, 2016 (GMT -0700)
Ellsworth Air Force Base

Weather History for KRCA - December, 2013

Change the Weather History Date:

Tuesday, December 24, 2013

  Actual Average Record
Temperature  
Mean Temperature 25 °F -  
Max Temperature 37 °F 34 °F 59 °F (1999)
Min Temperature 13 °F 14 °F -13 °F (1996)
Degree Days  
Heating Degree Days 40    
Moisture  
Dew Point 27 °F    
Average Humidity 86    
Maximum Humidity 100    
Minimum Humidity 67    
Precipitation  
Precipitation 0.03 in - - ()
Sea Level Pressure  
Sea Level Pressure 30.05 in    
Wind  
Wind Speed 17 mph (NNW)    
Max Wind Speed 28 mph    
Max Gust Speed 47 mph    
Visibility 8 miles    
Events Rain , Snow    
Averages and records for this station are not official NWS values.
T = Trace of Precipitation, MM = Missing Value Source: NWS Daily Summary

Daily Weather History Graph

Daily Weather History Graph

Search for Another Location

Airport or City:

Trip Planner

Search our weather history database for the weather conditions in past years. The results will help you decide how hot, cold, wet, or windy it might be!

Date:

Astronomy

Dec. 24, 2013 Rise Set
Actual Time 7:25 AM MST 4:18 PM MST
Civil Twilight 6:52 AM MST 4:51 PM MST
Nautical Twilight 6:16 AM MST 5:28 PM MST
Astronomical Twilight 5:40 AM MST 6:03 PM MST
Moon 11:44 PM MST (12/24) 11:07 AM MST (12/24)
Length of Visible Light 9h 59m
Length of Day
8h 52m
Waning Gibbous, 58% of the Moon is Illuminated
Dec 24
Waning Gibbous
Dec 25
Last Quarter
Jan 1
New
Jan 7
First Quarter
Jan 15
Full

Hourly Weather History & Observations

Time (MST) Temp. Windchill Dew Point Humidity Pressure Visibility Wind Dir Wind Speed Gust Speed Precip Events Conditions
12:58 AM 15.4 °F - 10.6 °F 81% 30.04 in 10.0 mi Calm Calm - N/A   Partly Cloudy
1:58 AM 14.4 °F - 10.2 °F 84% 30.02 in 10.0 mi West 2.3 mph - N/A   Overcast
2:58 AM 13.8 °F 4.9 °F 9.9 °F 84% 30.00 in 10.0 mi WNW 5.8 mph - N/A   Scattered Clouds
3:58 AM 15.8 °F -3.4 °F 12.2 °F 86% 30.03 in 3.0 mi North 26.5 mph 47.2 mph N/A   Overcast
3:59 AM 15.8 °F -3.4 °F 14.0 °F 93% 29.83 in 2.5 mi North 26.5 mph 47.2 mph N/A Snow Light Snow
4:04 AM 19.4 °F 1.8 °F 17.6 °F 93% 29.84 in 5.0 mi NNW 25.3 mph 40.3 mph N/A Snow Light Snow
4:08 AM 21.2 °F 3.9 °F 15.8 °F 80% 29.83 in 8.0 mi North 26.5 mph - N/A   Overcast
4:20 AM 21.2 °F 5.2 °F 15.8 °F 80% 29.82 in 9.0 mi North 21.9 mph - N/A Snow Light Snow
4:30 AM 23.0 °F 8.0 °F 17.6 °F 80% 29.82 in 10.0 mi North 20.7 mph - N/A   Overcast
4:58 AM 27.3 °F 13.0 °F 24.8 °F 90% 29.99 in 10.0 mi North 23.0 mph - 0.00 in   Overcast
5:58 AM 30.2 °F 17.8 °F 27.1 °F 88% 29.98 in 10.0 mi North 19.6 mph - N/A   Scattered Clouds
6:58 AM 33.8 °F 23.2 °F 32.0 °F 93% 30.00 in 10.0 mi North 17.3 mph - N/A   Mostly Cloudy
7:58 AM 36.1 °F 25.5 °F 32.7 °F 87% 30.02 in 10.0 mi North 19.6 mph - N/A   Overcast
8:23 AM 35.6 °F 24.8 °F 32.0 °F 87% 29.90 in 10.0 mi NNW 19.6 mph - N/A   Overcast
8:38 AM 35.6 °F 24.5 °F 32.0 °F 87% 29.92 in 10.0 mi NNW 20.7 mph - N/A   Overcast
8:53 AM 35.6 °F 24.8 °F 32.0 °F 87% 29.93 in 10.0 mi NNW 19.6 mph - N/A   Overcast
8:58 AM 36.5 °F 25.2 °F 32.7 °F 86% 30.06 in 10.0 mi NNW 23.0 mph 28.8 mph N/A   Overcast
9:10 AM 37.4 °F 26.4 °F 32.0 °F 81% 29.94 in 10.0 mi NNW 23.0 mph - N/A Rain Light Rain
9:50 AM 35.6 °F 23.2 °F 32.0 °F 87% 29.96 in 10.0 mi NNW 26.5 mph 33.4 mph N/A Rain Light Rain
9:58 AM 36.0 °F 23.9 °F 33.1 °F 89% 30.10 in 10.0 mi NNW 25.3 mph 33.4 mph 0.00 in Rain Light Rain
9:59 AM 35.6 °F 23.4 °F 32.0 °F 87% 29.97 in 10.0 mi NNW 25.3 mph - N/A Rain Light Rain
10:09 AM 35.6 °F 23.2 °F 32.0 °F 87% 29.98 in 9.0 mi NNW 26.5 mph 33.4 mph N/A Rain Light Rain
10:19 AM 33.8 °F 20.5 °F 32.0 °F 93% 29.99 in 5.0 mi NNW 27.6 mph - N/A Rain Light Rain
10:24 AM 33.8 °F 20.5 °F 32.0 °F 93% 29.99 in 2.5 mi NNW 27.6 mph 34.5 mph N/A Snow Light Snow
10:29 AM 33.8 °F 20.5 °F 32.0 °F 93% 29.99 in 2.0 mi NNW 27.6 mph 34.5 mph N/A Snow Light Snow
10:39 AM 32.0 °F 18.4 °F 32.0 °F 100% 30.00 in 2.5 mi NNW 26.5 mph - N/A Snow Light Snow
10:49 AM 32.0 °F 18.6 °F 32.0 °F 100% 30.01 in 3.0 mi NNW 25.3 mph 32.2 mph N/A Rain Light Rain
10:58 AM 33.4 °F 21.1 °F 32.0 °F 94% 30.14 in 5.0 mi NNW 23.0 mph - 0.02 in Rain Light Rain
11:13 AM 32.0 °F 19.5 °F 32.0 °F 100% 30.02 in 1.2 mi NNW 21.9 mph - N/A Snow Light Snow
11:18 AM 32.0 °F 20.5 °F 32.0 °F 100% 30.03 in 0.8 mi NNW 18.4 mph - N/A Snow Light Snow
11:23 AM 32.0 °F 20.1 °F 32.0 °F 100% 30.03 in 0.8 mi NNW 19.6 mph - N/A Snow Light Snow
11:28 AM 32.0 °F 20.1 °F 32.0 °F 100% 30.03 in 1.2 mi NW 19.6 mph - N/A Snow Light Snow
11:33 AM 32.0 °F 20.8 °F 32.0 °F 100% 30.03 in 2.5 mi NNW 17.3 mph - N/A Snow Light Snow
11:38 AM 32.0 °F 20.8 °F 32.0 °F 100% 30.03 in 3.0 mi NNW 17.3 mph - N/A Snow Light Snow
11:53 AM 32.0 °F 20.5 °F 32.0 °F 100% 30.04 in 10.0 mi NNW 18.4 mph - N/A Snow Light Snow
11:58 AM 33.3 °F 21.5 °F 32.2 °F 96% 30.17 in 10.0 mi NNW 20.7 mph - 0.01 in Rain Light Rain
11:59 AM 32.0 °F 20.1 °F 32.0 °F 100% 30.03 in 10.0 mi NNW 19.6 mph - N/A   Overcast
12:09 PM 33.8 °F 22.5 °F 32.0 °F 93% 30.04 in 10.0 mi NNW 19.6 mph - N/A   Overcast
12:49 PM 35.6 °F 23.4 °F 32.0 °F 87% 30.04 in 10.0 mi NNW 25.3 mph - N/A   Mostly Cloudy
12:54 PM 35.6 °F 24.0 °F 32.0 °F 87% 30.04 in 10.0 mi NNW 23.0 mph - N/A   Scattered Clouds
12:58 PM 34.7 °F 23.1 °F 30.6 °F 85% 30.17 in 10.0 mi NNW 21.9 mph - 0.00 in   Scattered Clouds
1:43 PM 35.6 °F 23.7 °F 28.4 °F 75% 30.06 in 10.0 mi NNW 24.2 mph - N/A   Light Drizzle
1:51 PM 35.6 °F 23.4 °F 30.2 °F 81% 30.06 in 10.0 mi NNW 25.3 mph - N/A   Clear
1:58 PM 34.7 °F 22.2 °F 29.5 °F 81% 30.21 in 10.0 mi NNW 25.3 mph 31.1 mph 0.00 in   Clear
2:58 PM 34.3 °F 23.5 °F 28.6 °F 79% 30.23 in 10.0 mi NNW 18.4 mph - N/A   Clear
3:58 PM 34.5 °F 23.8 °F 26.4 °F 72% 30.24 in 10.0 mi NNW 18.4 mph - N/A   Clear
4:58 PM 33.6 °F 25.6 °F 25.2 °F 71% 30.24 in 10.0 mi NNW 10.4 mph - N/A   Clear
5:58 PM 27.9 °F 21.5 °F 21.6 °F 77% 30.25 in 10.0 mi West 5.8 mph - N/A   Clear
6:58 PM 28.8 °F 20.2 °F 19.2 °F 68% 30.26 in 10.0 mi West 9.2 mph - N/A   Partly Cloudy
7:58 PM 31.6 °F 24.4 °F 21.7 °F 67% 30.25 in 10.0 mi WSW 8.1 mph - N/A   Overcast
8:58 PM 28.0 °F 20.0 °F 19.8 °F 71% 30.25 in 10.0 mi West 8.1 mph - N/A   Scattered Clouds
9:58 PM 28.0 °F 18.1 °F 18.5 °F 67% 30.26 in 10.0 mi WNW 11.5 mph - N/A   Clear
10:58 PM 25.5 °F 16.9 °F 17.8 °F 72% 30.27 in 10.0 mi West 8.1 mph - N/A   Clear
11:58 PM 24.4 °F 14.2 °F 16.3 °F 71% 30.26 in 10.0 mi WNW 10.4 mph - N/A   Clear